CTV088 WIHH-WIPP

Flight info

Callsign CTV088
Flight time 0h 46m
Altitude 32000
Route GOMEL T10 ENSAV
Aircraft A320/M-SDE3FGHIRWY/LB1

Departure

Time 2026-04-22 04:11
Airport Halim Perdanakusuma International Airport (WIHH)

Arrival

Time 2026-04-22 04:57
Airport Sultan Mahmud Badaruddin II Airport (WIPP)
Time Latitude Longitude Altitude Speed Heading
2026-04-22 04:11 -6.19394 106.70875 8184 ft 289 kts 319°
2026-04-22 04:11 -6.17869 106.69543 8945 ft 292 kts 319°
2026-04-22 04:11 -6.16328 106.68196 9685 ft 295 kts 320°
2026-04-22 04:11 -6.14777 106.66841 10264 ft 304 kts 320°
2026-04-22 04:12 -6.13118 106.65394 10430 ft 327 kts 320°
2026-04-22 04:12 -6.11360 106.63860 10801 ft 340 kts 319°
2026-04-22 04:12 -6.09560 106.62288 11393 ft 345 kts 320°
2026-04-22 04:12 -6.07759 106.60717 12008 ft 349 kts 320°
2026-04-22 04:13 -6.05917 106.59109 12637 ft 353 kts 320°
2026-04-22 04:13 -6.04056 106.57483 13254 ft 356 kts 320°
2026-04-22 04:13 -6.02174 106.55839 13853 ft 360 kts 320°
2026-04-22 04:13 -6.00278 106.54180 14396 ft 364 kts 320°
2026-04-22 04:14 -5.98359 106.52505 14933 ft 367 kts 320°
2026-04-22 04:14 -5.96426 106.50818 15467 ft 370 kts 320°
2026-04-22 04:14 -5.94475 106.49113 16001 ft 373 kts 320°
2026-04-22 04:14 -5.92534 106.47419 16513 ft 376 kts 320°
2026-04-22 04:15 -5.90523 106.45668 17037 ft 379 kts 320°
2026-04-22 04:15 -5.88520 106.43928 17554 ft 382 kts 320°
2026-04-22 04:15 -5.86526 106.42195 18057 ft 386 kts 320°
2026-04-22 04:15 -5.84491 106.40423 18504 ft 389 kts 320°
2026-04-22 04:16 -5.82442 106.38638 18948 ft 391 kts 320°
2026-04-22 04:16 -5.78304 106.35034 19838 ft 396 kts 320°
2026-04-22 04:16 -5.76215 106.33212 20284 ft 399 kts 320°
2026-04-22 04:17 -5.74114 106.31380 20730 ft 402 kts 320°
2026-04-22 04:17 -5.71994 106.29531 21165 ft 405 kts 320°
2026-04-22 04:17 -5.69862 106.27674 21605 ft 407 kts 320°
2026-04-22 04:17 -5.67788 106.25868 22022 ft 410 kts 320°
2026-04-22 04:18 -5.65627 106.23985 22463 ft 413 kts 320°
2026-04-22 04:18 -5.63452 106.22089 22888 ft 415 kts 320°
2026-04-22 04:18 -5.61265 106.20183 23307 ft 418 kts 320°
2026-04-22 04:18 -5.59061 106.18266 23676 ft 421 kts 320°
2026-04-22 04:19 -5.56843 106.16336 24019 ft 423 kts 319°
2026-04-22 04:19 -5.54619 106.14401 24369 ft 424 kts 319°
2026-04-22 04:19 -5.52384 106.12455 24708 ft 426 kts 320°
2026-04-22 04:19 -5.50138 106.10500 25045 ft 428 kts 319°
2026-04-22 04:20 -5.47882 106.08539 25379 ft 430 kts 319°
2026-04-22 04:20 -5.45620 106.06571 25705 ft 431 kts 319°
2026-04-22 04:20 -5.43349 106.04594 26034 ft 433 kts 319°
2026-04-22 04:20 -5.41068 106.02611 26354 ft 435 kts 319°
2026-04-22 04:21 -5.38780 106.00620 26672 ft 436 kts 319°
2026-04-22 04:21 -5.36487 105.98624 26981 ft 437 kts 319°
2026-04-22 04:21 -5.34188 105.96620 27283 ft 439 kts 319°
2026-04-22 04:21 -5.31880 105.94608 27588 ft 440 kts 319°
2026-04-22 04:22 -5.29563 105.92590 27884 ft 442 kts 319°
2026-04-22 04:22 -5.27241 105.90567 28169 ft 443 kts 319°
2026-04-22 04:22 -5.24939 105.88565 28437 ft 445 kts 319°
2026-04-22 04:22 -5.22597 105.86532 28719 ft 446 kts 319°
2026-04-22 04:23 -5.20246 105.84492 28987 ft 448 kts 319°
2026-04-22 04:23 -5.17823 105.82520 29243 ft 449 kts 325°
2026-04-22 04:23 -5.15271 105.80708 29513 ft 451 kts 325°
2026-04-22 04:23 -5.12705 105.78888 29765 ft 452 kts 325°
2026-04-22 04:24 -5.10130 105.77061 30005 ft 454 kts 325°
2026-04-22 04:24 -5.07554 105.75229 30203 ft 455 kts 325°
2026-04-22 04:24 -5.04965 105.73386 30404 ft 457 kts 325°
2026-04-22 04:24 -5.02369 105.71539 30603 ft 458 kts 325°
2026-04-22 04:25 -4.99769 105.69691 30795 ft 459 kts 325°
2026-04-22 04:25 -4.97157 105.67836 30983 ft 461 kts 325°
2026-04-22 04:25 -4.94536 105.65975 31172 ft 462 kts 325°
2026-04-22 04:25 -4.91918 105.64113 31445 ft 461 kts 325°
2026-04-22 04:26 -4.89312 105.62257 31715 ft 460 kts 325°
2026-04-22 04:26 -4.86704 105.60399 31849 ft 458 kts 325°
2026-04-22 04:26 -4.84136 105.58577 31878 ft 450 kts 325°
2026-04-22 04:27 -4.79060 105.54993 31875 ft 439 kts 325°
2026-04-22 04:27 -4.74111 105.51469 31875 ft 435 kts 325°
2026-04-22 04:28 -4.69179 105.47950 31879 ft 435 kts 325°
2026-04-22 04:28 -4.64242 105.44441 31873 ft 435 kts 325°
2026-04-22 04:29 -4.59307 105.40936 31873 ft 435 kts 325°
2026-04-22 04:29 -4.54373 105.37433 31865 ft 434 kts 325°
2026-04-22 04:30 -4.49447 105.33933 31863 ft 434 kts 325°
2026-04-22 04:30 -4.44544 105.30459 31860 ft 434 kts 325°
2026-04-22 04:31 -4.39615 105.26971 31787 ft 432 kts 325°
2026-04-22 04:31 -4.37186 105.25248 31545 ft 423 kts 325°
2026-04-22 04:31 -4.34807 105.23558 31227 ft 417 kts 325°
2026-04-22 04:31 -4.32447 105.21880 30736 ft 415 kts 325°
2026-04-22 04:32 -4.30096 105.20212 30255 ft 413 kts 325°
2026-04-22 04:32 -4.27754 105.18551 29750 ft 412 kts 325°
2026-04-22 04:32 -4.25426 105.16897 29273 ft 408 kts 325°
2026-04-22 04:32 -4.23117 105.15259 28811 ft 405 kts 325°
2026-04-22 04:33 -4.20828 105.13635 28371 ft 401 kts 325°
2026-04-22 04:33 -4.18562 105.12031 27932 ft 398 kts 325°
2026-04-22 04:33 -4.16309 105.10435 27491 ft 395 kts 325°
2026-04-22 04:33 -4.14072 105.08850 27050 ft 393 kts 325°
2026-04-22 04:34 -4.11813 105.07328 26600 ft 390 kts 332°
2026-04-22 04:34 -4.09346 105.06234 26159 ft 387 kts 343°
2026-04-22 04:34 -4.06723 105.05665 25707 ft 385 kts 355°
2026-04-22 04:34 -4.04057 105.05466 25240 ft 384 kts 356°
2026-04-22 04:35 -4.01393 105.05272 24778 ft 383 kts 356°
2026-04-22 04:35 -3.98732 105.05069 24288 ft 383 kts 356°
2026-04-22 04:35 -3.96076 105.04862 23805 ft 383 kts 356°
2026-04-22 04:35 -3.93418 105.04654 23291 ft 384 kts 356°
2026-04-22 04:36 -3.90793 105.04448 22764 ft 383 kts 356°
2026-04-22 04:36 -3.88147 105.04241 22284 ft 381 kts 356°
2026-04-22 04:36 -3.85511 105.04038 21806 ft 379 kts 356°
2026-04-22 04:36 -3.82886 105.03834 21336 ft 377 kts 356°
2026-04-22 04:37 -3.80274 105.03632 20864 ft 376 kts 356°
2026-04-22 04:37 -3.77673 105.03431 20398 ft 375 kts 356°
2026-04-22 04:37 -3.75077 105.03231 19942 ft 373 kts 356°
2026-04-22 04:37 -3.72490 105.03034 19477 ft 372 kts 356°
2026-04-22 04:38 -3.69912 105.02839 19098 ft 369 kts 356°
2026-04-22 04:38 -3.67350 105.02646 18630 ft 368 kts 356°
2026-04-22 04:38 -3.64831 105.02456 18146 ft 359 kts 356°
2026-04-22 04:38 -3.62379 105.02270 17645 ft 348 kts 356°
2026-04-22 04:39 -3.60011 105.02088 17226 ft 335 kts 356°
2026-04-22 04:39 -3.57704 105.01910 16828 ft 332 kts 356°
2026-04-22 04:39 -3.55397 105.01731 16431 ft 332 kts 356°
2026-04-22 04:39 -3.53108 105.01470 16035 ft 331 kts 348°
2026-04-22 04:40 -3.50932 105.00731 15681 ft 330 kts 334°
2026-04-22 04:40 -3.48962 104.99577 15406 ft 327 kts 328°
2026-04-22 04:40 -3.47026 104.98389 15111 ft 325 kts 329°
2026-04-22 04:40 -3.45749 104.97610 14924 ft 324 kts 329°
2026-04-22 04:41 -3.43826 104.96442 14636 ft 323 kts 329°
2026-04-22 04:41 -3.41907 104.95280 14349 ft 321 kts 329°
2026-04-22 04:41 -3.39386 104.93753 13971 ft 319 kts 329°
2026-04-22 04:41 -3.37494 104.92607 13691 ft 317 kts 329°
2026-04-22 04:42 -3.36218 104.91836 13476 ft 316 kts 329°
2026-04-22 04:42 -3.34339 104.90696 13187 ft 315 kts 328°
2026-04-22 04:42 -3.32475 104.89563 12896 ft 313 kts 328°
2026-04-22 04:42 -3.30619 104.88434 12627 ft 312 kts 328°
2026-04-22 04:43 -3.28772 104.87309 12352 ft 310 kts 328°
2026-04-22 04:43 -3.26934 104.86190 12073 ft 309 kts 329°
2026-04-22 04:43 -3.25126 104.85090 11801 ft 307 kts 329°
2026-04-22 04:43 -3.23304 104.83983 11524 ft 306 kts 329°
2026-04-22 04:44 -3.21503 104.82889 11258 ft 305 kts 329°
2026-04-22 04:44 -3.19722 104.81809 11083 ft 303 kts 329°
2026-04-22 04:44 -3.17917 104.80713 10851 ft 303 kts 329°
2026-04-22 04:44 -3.16120 104.79621 10590 ft 301 kts 329°
2026-04-22 04:45 -3.14333 104.78535 10324 ft 300 kts 329°
2026-04-22 04:45 -3.12554 104.77456 10056 ft 298 kts 329°
2026-04-22 04:45 -3.10790 104.76386 9791 ft 295 kts 329°
2026-04-22 04:45 -3.09039 104.75322 9504 ft 294 kts 329°
2026-04-22 04:46 -3.07297 104.74260 9239 ft 292 kts 329°
2026-04-22 04:46 -3.05563 104.73200 8979 ft 291 kts 328°
2026-04-22 04:46 -3.03838 104.72146 8711 ft 291 kts 329°
2026-04-22 04:46 -3.02128 104.71092 8453 ft 289 kts 326°
2026-04-22 04:47 -3.00626 104.69753 8185 ft 288 kts 309°
2026-04-22 04:47 -2.99552 104.68074 7939 ft 287 kts 294°
2026-04-22 04:47 -2.98800 104.66226 7679 ft 287 kts 292°
2026-04-22 04:47 -2.98079 104.64430 7430 ft 286 kts 292°
2026-04-22 04:48 -2.97338 104.62593 7172 ft 285 kts 292°
2026-04-22 04:48 -2.96599 104.60760 6922 ft 284 kts 292°
2026-04-22 04:48 -2.95874 104.58931 6664 ft 282 kts 291°
2026-04-22 04:48 -2.95162 104.57105 6401 ft 281 kts 291°
2026-04-22 04:49 -2.94456 104.55281 6123 ft 280 kts 291°
2026-04-22 04:49 -2.93751 104.53469 5850 ft 279 kts 291°
2026-04-22 04:49 -2.93056 104.51686 5603 ft 278 kts 291°
2026-04-22 04:49 -2.92353 104.49886 5349 ft 277 kts 291°
2026-04-22 04:50 -2.91651 104.48092 5091 ft 276 kts 291°
2026-04-22 04:50 -2.90952 104.46304 4832 ft 276 kts 292°
2026-04-22 04:50 -2.89998 104.44667 4573 ft 272 kts 315°
2026-04-22 04:50 -2.88416 104.43679 4312 ft 270 kts 344°
2026-04-22 04:51 -2.86565 104.43576 4032 ft 268 kts 13°
2026-04-22 04:51 -2.84802 104.44183 3748 ft 269 kts 21°
2026-04-22 04:51 -2.83088 104.44840 3603 ft 257 kts 21°
2026-04-22 04:51 -2.81581 104.45682 3480 ft 244 kts 46°
2026-04-22 04:52 -2.80777 104.47105 3372 ft 232 kts 79°
2026-04-22 04:52 -2.80857 104.48656 3253 ft 221 kts 110°
2026-04-22 04:52 -2.81432 104.50041 3147 ft 211 kts 112°
2026-04-22 04:52 -2.81983 104.51345 3073 ft 197 kts 112°
2026-04-22 04:53 -2.82501 104.52575 2912 ft 188 kts 112°
2026-04-22 04:53 -2.82997 104.53753 2744 ft 180 kts 112°
2026-04-22 04:53 -2.83471 104.54880 2598 ft 172 kts 112°
2026-04-22 04:53 -2.83916 104.55937 2522 ft 160 kts 113°
2026-04-22 04:54 -2.84340 104.56946 2371 ft 155 kts 113°
2026-04-22 04:54 -2.84753 104.57926 2229 ft 151 kts 113°
2026-04-22 04:54 -2.85158 104.58887 2029 ft 149 kts 113°
2026-04-22 04:54 -2.85558 104.59839 1827 ft 148 kts 113°
2026-04-22 04:55 -2.85957 104.60786 1646 ft 147 kts 113°
2026-04-22 04:55 -2.86353 104.61729 1451 ft 147 kts 113°
2026-04-22 04:55 -2.86749 104.62668 1259 ft 146 kts 113°
2026-04-22 04:55 -2.87143 104.63606 1074 ft 146 kts 113°
2026-04-22 04:56 -2.87537 104.64541 896 ft 146 kts 112°
2026-04-22 04:56 -2.87900 104.65403 733 ft 145 kts 112°
2026-04-22 04:56 -2.88291 104.66333 560 ft 145 kts 112°
2026-04-22 04:56 -2.88683 104.67264 362 ft 144 kts 111°
2026-04-22 04:57 -2.89074 104.68184 152 ft 144 kts 111°
2026-04-22 04:57 -2.89455 104.69092 27 ft 136 kts 111°
2026-04-22 04:57 -2.89757 104.69818 20 ft 76 kts 112°
2026-04-22 04:57 -2.89904 104.70164 23 ft 41 kts 112°
2026-04-22 04:58 -2.89991 104.70366 22 ft 24 kts 112°
2026-04-22 04:58 -2.89977 104.70478 22 ft 7 kts 30°
2026-04-22 04:58 -2.89941 104.70494 23 ft 4 kts 23°
2026-04-22 04:58 -2.89924 104.70502 24 ft 1 kts 23°
2026-04-22 04:59 -2.89913 104.70506 23 ft 6 kts 23°
2026-04-22 04:59 -2.89834 104.70541 25 ft 15 kts 23°
2026-04-22 04:59 -2.89745 104.70586 28 ft 14 kts 26°
2026-04-22 04:59 -2.89687 104.70611 28 ft 2 kts 24°
2026-04-22 05:00 -2.89681 104.70613 27 ft 0 kts 24°